Location: São Paulo
(23.5507°S, 46.6334°W)
Time: 07:59:16
(UTC-03:00)

Transit 2A - Pass Details

Date: 23 February 2026
Orbit: 590 x 954 km, 66.7° (Epoch: 10 March)

Event Time Altitude Azimuth Distance (km) Brightness Sun altitude
Rises 10:12:09 0° 227° (SW) 3,136 8.9 56.5°
Reaches altitude 10° 10:15:05 10° 245° (WSW) 2,278 8.2 57.2°
Maximum altitude 10:18:37 19° 288° (WNW) 1,828 7.9 57.9°
Drops below altitude 10° 10:22:23 10° 331° (NNW) 2,429 8.7 58.7°
Sets 10:25:39 0° 348° (NNW) 3,425 9.4 59.4°
